| time (UTC) | temp C | wind direction | speed KPH | gust KPH | rain 1hr cm | rain 24hr cm | rain mn cm | humidity % | barometer mb |
| 20260504201504 | 22 | 235 | 35.4 | 45.1 | 0.00 | 0.00 | 0.00 | 37 | 1011.3 |
| 20260504201002 | 22 | 290 | 0.0 | 20.9 | 0.00 | 0.00 | 0.00 | 40 | 1011.6 |
| 20260504200458 | 21 | 205 | 35.4 | 72.4 | 0.00 | 0.00 | 0.00 | 40 | 1011.4 |
| 20260504195954 | 21 | 225 | 30.6 | 59.5 | 0.00 | 0.00 | 0.00 | 38 | 1011.5 |
| 20260504195451 | 21 | 266 | 12.9 | 75.6 | 0.00 | 0.00 | 0.00 | 36 | 1011.7 |
| 20260504194947 | 21 | 220 | 46.7 | 57.9 | 0.00 | 0.00 | 0.00 | 37 | 1011.7 |
| 20260504194443 | 21 | 226 | 40.2 | 59.5 | 0.00 | 0.00 | 0.00 | 41 | 1011.8 |
| 20260504193939 | 21 | 201 | 17.7 | 41.8 | 0.00 | 0.00 | 0.00 | 36 | 1011.9 |
| 20260504193437 | 22 | 245 | 45.1 | 77.2 | 0.00 | 0.00 | 0.00 | 35 | 1012.1 |
| 20260504192935 | 21 | 227 | 27.4 | 49.9 | 0.00 | 0.00 | 0.00 | 40 | 1012.2 |
| 20260504192432 | 21 | 248 | 20.9 | 32.2 | 0.00 | 0.00 | 0.00 | 36 | 1012.3 |
| 20260504191931 | 21 | 235 | 25.7 | 62.8 | 0.00 | 0.00 | 0.00 | 37 | 1012.4 |
| 20260504191429 | 21 | 197 | 48.3 | 74.0 | 0.00 | 0.00 | 0.00 | 36 | 1012.3 |
| 20260504190924 | 21 | 226 | 43.5 | 72.4 | 0.00 | 0.00 | 0.00 | 39 | 1012.4 |
| 20260504190420 | 21 | 47 | 16.1 | 45.1 | 0.00 | 0.00 | 0.00 | 37 | 1012.4 |
| 20260504185917 | 21 | 250 | 20.9 | 30.6 | 0.00 | 0.00 | 0.00 | 37 | 1012.3 |
| 20260504185414 | 21 | 189 | 32.2 | 70.8 | 0.00 | 0.00 | 0.00 | 37 | 1012.4 |
| 20260504184910 | 21 | 236 | 48.3 | 56.3 | 0.00 | 0.00 | 0.00 | 38 | 1012.5 |
| 20260504184406 | 21 | 206 | 66.0 | 77.2 | 0.00 | 0.00 | 0.00 | 37 | 1012.6 |
| 20260504183902 | 21 | 218 | 54.7 | 62.8 | 0.00 | 0.00 | 0.00 | 36 | 1012.8 |
| 20260504183359 | 21 | 200 | 24.1 | 72.4 | 0.00 | 0.00 | 0.00 | 37 | 1012.7 |
| 20260504182857 | 22 | 209 | 61.2 | 72.4 | 0.00 | 0.00 | 0.00 | 37 | 1012.8 |
| 20260504182354 | 22 | 270 | 25.7 | 40.2 | 0.00 | 0.00 | 0.00 | 34 | 1012.9 |
| 20260504181850 | 22 | 258 | 16.1 | 25.7 | 0.00 | 0.00 | 0.00 | 33 | 1013.0 |
| 20260504181348 | 22 | 277 | 11.3 | 35.4 | 0.00 | 0.00 | 0.00 | 37 | 1012.9 |
| 20260504180847 | 22 | 210 | 29.0 | 51.5 | 0.00 | 0.00 | 0.00 | 38 | 1013.1 |
| 20260504180345 | 22 | 218 | 24.1 | 51.5 | 0.00 | 0.00 | 0.00 | 34 | 1013.2 |
| 20260504175843 | 22 | 176 | 41.8 | 48.3 | 0.00 | 0.00 | 0.00 | 35 | 1013.1 |
| 20260504175339 | 21 | 223 | 43.5 | 66.0 | 0.00 | 0.00 | 0.00 | 39 | 1013.3 |
| 20260504174838 | 22 | 250 | 9.7 | 70.8 | 0.00 | 0.00 | 0.00 | 36 | 1013.0 |
| 20260504174335 | 21 | 206 | 56.3 | 59.5 | 0.00 | 0.00 | 0.00 | 38 | 1013.2 |
| 20260504173832 | 22 | 221 | 57.9 | 95.0 | 0.00 | 0.00 | 0.00 | 35 | 1013.3 |
| 20260504173328 | 21 | 247 | 11.3 | 37.0 | 0.00 | 0.00 | 0.00 | 40 | 1013.2 |
| 20260504172825 | 22 | 182 | 61.2 | 75.6 | 0.00 | 0.00 | 0.00 | 34 | 1013.5 |
| 20260504172322 | 22 | 255 | 9.7 | 27.4 | 0.00 | 0.00 | 0.00 | 37 | 1013.7 |
| 20260504171818 | 21 | 245 | 27.4 | 49.9 | 0.00 | 0.00 | 0.00 | 41 | 1013.9 |
| 20260504171315 | 21 | 259 | 24.1 | 37.0 | 0.00 | 0.00 | 0.00 | 36 | 1013.7 |
| 20260504170812 | 22 | 204 | 48.3 | 56.3 | 0.00 | 0.00 | 0.00 | 34 | 1014.0 |
| 20260504170309 | 22 | 207 | 20.9 | 27.4 | 0.00 | 0.00 | 0.00 | 36 | 1013.9 |
| 20260504160227 | 20 | 202 | 24.1 | 46.7 | 0.00 | 0.00 | 0.00 | 41 | 1014.6 |
| 20260504150652 | 17 | 200 | 20.9 | 41.8 | 0.00 | 0.00 | 0.00 | 40 | 1015.6 |
| 20260504150149 | 17 | 215 | 25.7 | 59.5 | 0.00 | 0.00 | 0.00 | 40 | 1015.5 |
| 20260504141118 | 15 | 214 | 24.1 | 29.0 | 0.00 | 0.00 | 0.00 | 49 | 1015.7 |
| 20260504140615 | 14 | 227 | 29.0 | 33.8 | 0.00 | 0.00 | 0.00 | 50 | 1015.6 |
| 20260504140110 | 14 | 245 | 16.1 | 29.0 | 0.00 | 0.00 | 0.00 | 54 | 1015.7 |
| 20260504130539 | 11 | 240 | 25.7 | 37.0 | 0.00 | 0.00 | 0.00 | 56 | 1016.2 |
| 20260504110426 | 5 | 320 | 0.0 | 0.0 | 0.00 | 0.00 | 0.00 | 81 | 1016.1 |
| 20260504100343 | 3 | 193 | 9.7 | 11.3 | 0.00 | 0.00 | 0.00 | 81 | 1016.3 |
| 20260504081737 | 4 | 205 | 0.0 | 0.0 | 0.00 | 0.00 | 0.00 | 77 | 1016.5 |
| 20260504081233 | 4 | 218 | 14.5 | 14.5 | 0.00 | 0.00 | 0.00 | 75 | 1016.4 |
| 20260504080730 | 5 | 49 | 14.5 | 14.5 | 0.00 | 0.00 | 0.00 | 76 | 1016.5 |
| 20260504080226 | 5 | 261 | 9.7 | 9.7 | 0.00 | 0.00 | 0.00 | 77 | 1016.6 |
| 20260504070154 | 5 | 171 | 0.0 | 0.0 | 0.00 | 0.00 | 0.00 | 79 | 1016.5 |
| 20260504060119 | 5 | 267 | 0.0 | 0.0 | 0.00 | 0.00 | 0.00 | 70 | 1016.7 |
| 20260504050548 | 6 | 220 | 0.0 | 0.0 | 0.00 | 0.00 | 0.00 | 71 | 1016.6 |
| 20260504045541 | 6 | 265 | 0.0 | 9.7 | 0.00 | 0.00 | 0.00 | 64 | 1016.7 |
| 20260504045037 | 6 | 240 | 0.0 | 0.0 | 0.00 | 0.00 | 0.00 | 68 | 1016.8 |
| 20260504044535 | 6 | 245 | 0.0 | 0.0 | 0.00 | 0.00 | 0.00 | 68 | 1016.7 |
| 20260504044031 | 6 | 230 | 0.0 | 0.0 | 0.00 | 0.00 | 0.00 | 70 | 1016.5 |
| 20260504043528 | 7 | 211 | 11.3 | 17.7 | 0.00 | 0.00 | 0.00 | 71 | 1016.6 |
| 20260504043026 | 7 | 277 | 12.9 | 17.7 | 0.00 | 0.00 | 0.00 | 62 | 1016.5 |
| 20260504042523 | 6 | 284 | 12.9 | 14.5 | 0.00 | 0.00 | 0.00 | 64 | 1016.5 |
| 20260504042020 | 6 | 293 | 0.0 | 9.7 | 0.00 | 0.00 | 0.00 | 70 | 1016.6 |
| 20260504041515 | 6 | 224 | 0.0 | 0.0 | 0.00 | 0.00 | 0.00 | 72 | 1016.9 |
| 20260504041011 | 6 | 224 | 0.0 | 0.0 | 0.00 | 0.00 | 0.00 | 72 | 1016.7 |
| 20260504040509 | 6 | 200 | 9.7 | 14.5 | 0.00 | 0.00 | 0.00 | 69 | 1016.5 |
| 20260504040006 | 6 | 254 | 0.0 | 0.0 | 0.00 | 0.00 | 0.00 | 65 | 1016.4 |
| 20260504035503 | 6 | 224 | 0.0 | 9.7 | 0.00 | 0.00 | 0.00 | 71 | 1016.4 |
| 20260504034959 | 6 | 230 | 0.0 | 0.0 | 0.00 | 0.00 | 0.00 | 69 | 1016.3 |
| 20260504034457 | 6 | 230 | 0.0 | 0.0 | 0.00 | 0.00 | 0.00 | 69 | 1016.4 |
| 20260504033954 | 6 | 267 | 0.0 | 0.0 | 0.00 | 0.00 | 0.00 | 69 | 1016.3 |
| 20260504033451 | 6 | 304 | 0.0 | 0.0 | 0.00 | 0.00 | 0.00 | 70 | 1016.3 |
| 20260504032948 | 6 | 226 | 0.0 | 11.3 | 0.00 | 0.00 | 0.00 | 70 | 1016.4 |
| 20260504032445 | 6 | 264 | 0.0 | 0.0 | 0.00 | 0.00 | 0.00 | 67 | 1016.3 |
| 20260504031942 | 7 | 290 | 0.0 | 12.9 | 0.00 | 0.00 | 0.00 | 71 | 1016.3 |
| 20260504031439 | 7 | 242 | 0.0 | 9.7 | 0.00 | 0.00 | 0.00 | 66 | 1016.2 |
| 20260504030935 | 7 | 277 | 0.0 | 0.0 | 0.00 | 0.00 | 0.00 | 64 | 1016.1 |
| 20260504030433 | 6 | 220 | 0.0 | 0.0 | 0.00 | 0.00 | 0.00 | 69 | 1016.0 |
| 20260504025928 | 7 | 220 | 0.0 | 0.0 | 0.00 | 0.00 | 0.00 | 74 | 1016.1 |
| 20260504025426 | 7 | 233 | 9.7 | 11.3 | 0.00 | 0.00 | 0.00 | 71 | 1015.9 |
| 20260504024923 | 7 | 167 | 0.0 | 0.0 | 0.00 | 0.00 | 0.00 | 66 | 1016.1 |
| 20260504024420 | 7 | 233 | 0.0 | 0.0 | 0.00 | 0.00 | 0.00 | 67 | 1015.9 |
| 20260504023917 | 7 | 233 | 0.0 | 0.0 | 0.00 | 0.00 | 0.00 | 72 | 1016.2 |
| 20260504023413 | 7 | 233 | 0.0 | 0.0 | 0.00 | 0.00 | 0.00 | 71 | 1016.1 |
| 20260504022908 | 7 | 233 | 0.0 | 0.0 | 0.00 | 0.00 | 0.00 | 68 | 1016.1 |
| 20260504022405 | 7 | 233 | 0.0 | 0.0 | 0.00 | 0.00 | 0.00 | 66 | 1016.3 |
| 20260504021902 | 8 | 325 | 0.0 | 0.0 | 0.00 | 0.00 | 0.00 | 67 | 1016.2 |
| 20260504021359 | 8 | 245 | 0.0 | 0.0 | 0.00 | 0.00 | 0.00 | 59 | 1016.1 |
| 20260504020856 | 8 | 254 | 0.0 | 11.3 | 0.00 | 0.00 | 0.00 | 59 | 1016.2 |
| 20260504020353 | 8 | 250 | 0.0 | 0.0 | 0.00 | 0.00 | 0.00 | 62 | 1016.3 |
| 20260504015849 | 8 | 250 | 0.0 | 0.0 | 0.00 | 0.00 | 0.00 | 64 | 1016.3 |
| 20260504015345 | 8 | 240 | 0.0 | 0.0 | 0.00 | 0.00 | 0.00 | 62 | 1016.2 |
| 20260504014841 | 8 | 348 | 0.0 | 0.0 | 0.00 | 0.00 | 0.00 | 62 | 1016.0 |
| 20260504014337 | 8 | 254 | 0.0 | 9.7 | 0.00 | 0.00 | 0.00 | 63 | 1016.2 |
| 20260504013835 | 8 | 250 | 0.0 | 0.0 | 0.00 | 0.00 | 0.00 | 55 | 1016.0 |
| 20260504013333 | 8 | 249 | 0.0 | 9.7 | 0.00 | 0.00 | 0.00 | 59 | 1015.8 |
| 20260504012830 | 8 | 245 | 0.0 | 12.9 | 0.00 | 0.00 | 0.00 | 56 | 1016.0 |
| 20260504012327 | 8 | 264 | 0.0 | 0.0 | 0.00 | 0.00 | 0.00 | 54 | 1016.0 |
| 20260504011825 | 8 | 223 | 0.0 | 0.0 | 0.00 | 0.00 | 0.00 | 52 | 1015.8 |
| 20260504011321 | 9 | 250 | 0.0 | 9.7 | 0.00 | 0.00 | 0.00 | 52 | 1015.8 |
| 20260504010817 | 9 | 220 | 0.0 | 9.7 | 0.00 | 0.00 | 0.00 | 50 | 1015.7 |
| 20260504010312 | 9 | 244 | 9.7 | 14.5 | 0.00 | 0.00 | 0.00 | 50 | 1015.9 |
| 20260504005809 | 9 | 270 | 0.0 | 11.3 | 0.00 | 0.00 | 0.00 | 50 | 1015.8 |
| 20260504005306 | 9 | 245 | 0.0 | 9.7 | 0.00 | 0.00 | 0.00 | 51 | 1015.7 |
| 20260504004804 | 9 | 241 | 9.7 | 16.1 | 0.00 | 0.00 | 0.00 | 50 | 1015.7 |
| 20260504004301 | 10 | 236 | 11.3 | 11.3 | 0.00 | 0.00 | 0.00 | 49 | 1015.6 |
| 20260504003757 | 10 | 250 | 0.0 | 11.3 | 0.00 | 0.00 | 0.00 | 48 | 1015.6 |
| 20260504003255 | 10 | 238 | 0.0 | 11.3 | 0.00 | 0.00 | 0.00 | 49 | 1015.4 |
| 20260504002751 | 10 | 236 | 0.0 | 11.3 | 0.00 | 0.00 | 0.00 | 48 | 1015.6 |
| 20260504002248 | 10 | 233 | 0.0 | 11.3 | 0.00 | 0.00 | 0.00 | 48 | 1015.4 |
| 20260504001746 | 11 | 230 | 0.0 | 11.3 | 0.00 | 0.00 | 0.00 | 47 | 1015.3 |
| 20260504001243 | 11 | 239 | 0.0 | 0.0 | 0.00 | 0.00 | 0.00 | 46 | 1015.1 |
| 20260504000739 | 11 | 232 | 0.0 | 9.7 | 0.00 | 0.00 | 0.00 | 46 | 1015.2 |
| 20260504000236 | 11 | 231 | 0.0 | 12.9 | 0.00 | 0.00 | 0.00 | 47 | 1015.1 |
| 20260503235735 | 11 | 239 | 0.0 | 11.3 | 0.00 | 0.00 | 0.00 | 46 | 1015.0 |
| 20260503235231 | 12 | 253 | 12.9 | 12.9 | 0.00 | 0.00 | 0.00 | 45 | 1015.0 |
| 20260503234729 | 12 | 238 | 0.0 | 12.9 | 0.00 | 0.00 | 0.00 | 44 | 1014.9 |
| 20260503234227 | 12 | 229 | 11.3 | 14.5 | 0.00 | 0.00 | 0.00 | 46 | 1015.0 |
| 20260503233724 | 12 | 269 | 0.0 | 9.7 | 0.00 | 0.00 | 0.00 | 43 | 1014.9 |
| 20260503233219 | 13 | 156 | 0.0 | 14.5 | 0.00 | 0.00 | 0.00 | 43 | 1014.9 |
| 20260503232716 | 13 | 245 | 0.0 | 14.5 | 0.00 | 0.00 | 0.00 | 42 | 1015.0 |
| 20260503232213 | 13 | 264 | 12.9 | 17.7 | 0.00 | 0.00 | 0.00 | 41 | 1015.0 |
| 20260503231712 | 13 | 224 | 12.9 | 20.9 | 0.00 | 0.00 | 0.00 | 40 | 1014.9 |
| 20260503231208 | 13 | 265 | 20.9 | 25.7 | 0.00 | 0.00 | 0.00 | 39 | 1014.8 |
| 20260503230704 | 13 | 264 | 12.9 | 14.5 | 0.00 | 0.00 | 0.00 | 40 | 1015.1 |
| 20260503230202 | 13 | 282 | 0.0 | 17.7 | 0.00 | 0.00 | 0.00 | 40 | 1014.8 |
| 20260503225659 | 14 | 270 | 11.3 | 17.7 | 0.00 | 0.00 | 0.00 | 40 | 1014.7 |
| 20260503225159 | 14 | 275 | 11.3 | 16.1 | 0.00 | 0.00 | 0.00 | 38 | 1014.8 |
| 20260503224657 | 14 | 262 | 14.5 | 20.9 | 0.00 | 0.00 | 0.00 | 39 | 1014.7 |
| 20260503224154 | 14 | 227 | 0.0 | 19.3 | 0.00 | 0.00 | 0.00 | 38 | 1014.9 |
| 20260503223652 | 14 | 266 | 17.7 | 30.6 | 0.00 | 0.00 | 0.00 | 36 | 1014.8 |
| 20260503223149 | 14 | 263 | 11.3 | 19.3 | 0.00 | 0.00 | 0.00 | 38 | 1014.6 |
| 20260503222646 | 14 | 203 | 14.5 | 17.7 | 0.00 | 0.00 | 0.00 | 40 | 1014.6 |
| 20260503222143 | 14 | 278 | 16.1 | 30.6 | 0.00 | 0.00 | 0.00 | 35 | 1014.7 |
| 20260503221642 | 15 | 285 | 19.3 | 20.9 | 0.00 | 0.00 | 0.00 | 38 | 1014.8 |
| 20260503221139 | 15 | 290 | 9.7 | 24.1 | 0.00 | 0.00 | 0.00 | 35 | 1014.8 |
| 20260503220635 | 15 | 264 | 17.7 | 27.4 | 0.00 | 0.00 | 0.00 | 37 | 1014.7 |
| 20260503220132 | 15 | 256 | 16.1 | 25.7 | 0.00 | 0.00 | 0.00 | 36 | 1014.6 |
| 20260503215630 | 15 | 279 | 14.5 | 20.9 | 0.00 | 0.00 | 0.00 | 36 | 1015.0 |
| 20260503215126 | 15 | 299 | 14.5 | 27.4 | 0.00 | 0.00 | 0.00 | 35 | 1014.9 |
| 20260503214625 | 15 | 292 | 17.7 | 30.6 | 0.00 | 0.00 | 0.00 | 36 | 1014.7 |
| 20260503214120 | 15 | 270 | 11.3 | 29.0 | 0.00 | 0.00 | 0.00 | 35 | 1014.9 |
| 20260503213620 | 15 | 280 | 14.5 | 32.2 | 0.00 | 0.00 | 0.00 | 33 | 1014.7 |
| 20260503213116 | 15 | 260 | 14.5 | 33.8 | 0.00 | 0.00 | 0.00 | 36 | 1014.8 |
| 20260503212613 | 15 | 310 | 0.0 | 35.4 | 0.00 | 0.00 | 0.00 | 34 | 1014.6 |
| 20260503212111 | 15 | 266 | 17.7 | 35.4 | 0.00 | 0.00 | 0.00 | 32 | 1014.6 |
| 20260503211608 | 15 | 273 | 20.9 | 33.8 | 0.00 | 0.00 | 0.00 | 34 | 1014.6 |
| 20260503211103 | 15 | 311 | 17.7 | 30.6 | 0.00 | 0.00 | 0.00 | 37 | 1014.6 |
| 20260503210600 | 15 | 270 | 27.4 | 30.6 | 0.00 | 0.00 | 0.00 | 35 | 1014.6 |
| 20260503210056 | 15 | 265 | 16.1 | 25.7 | 0.00 | 0.00 | 0.00 | 34 | 1014.6 |
| 20260503205552 | 15 | 287 | 27.4 | 32.2 | 0.00 | 0.00 | 0.00 | 34 | 1014.6 |
| 20260503205049 | 15 | 274 | 16.1 | 32.2 | 0.00 | 0.00 | 0.00 | 33 | 1014.6 |
| 20260503204546 | 15 | 307 | 0.0 | 32.2 | 0.00 | 0.00 | 0.00 | 34 | 1014.6 |
| 20260503204043 | 15 | 258 | 12.9 | 20.9 | 0.00 | 0.00 | 0.00 | 37 | 1014.6 |
| 20260503203540 | 15 | 277 | 9.7 | 29.0 | 0.00 | 0.00 | 0.00 | 36 | 1014.9 |
| 20260503203037 | 15 | 23 | 11.3 | 29.0 | 0.00 | 0.00 | 0.00 | 36 | 1014.8 |
| 20260503202535 | 15 | 285 | 11.3 | 41.8 | 0.00 | 0.00 | 0.00 | 33 | 1014.9 |
| 20260503202033 | 15 | 290 | 9.7 | 35.4 | 0.00 | 0.00 | 0.00 | 34 | 1014.7 |